Temp
-10 -10 -10 -10 -10 -10 -10 -10 -10 -10 -11 -11 -11 -11 -11 -11 -11 -11 -11 -11 -12 -12 -12 -12 -12 -12 -12 -12 -12 -12 -12 -12 -12 -12 -12 -12 -12 -12 -12 -12 -12 -12 -12 -12
-9 -9 -9 -9 -9 -10 -10 -10 -10 -10 -10 -10 -10 -10 -10 -10 -10 -10 -10 -11 -12 -12 -12 -12 -12 -12 -12 -13 -12 -12 -12 -12 -12 -12 -12 -12 -12 -12 -12 -12 -12 -12 -12 -12
-9 -9 -9 -10 -10 -10 -10 -10 -9 -10 -10 -10 -9 -9 -9 -9 -10 -10 -11 -11 -12 -12 -12 -12 -12 -13 -13 -13 -12 -12 -12 -12 -12 -12 -12 -12 -12 -12 -12 -12 -12 -12 -12 -13
-9 -9 -10 -10 -10 -10 -10 -10 -10 -9 -9 -9 -9 -9 -9 -10 -10 -11 -11 -11 -12 -12 -12 -12 -12 -12 -13 -12 -12 -12 -12 -12 -12 -12 -12 -12 -12 -12 -12 -12 -13 -13 -13 -13
-9 -10 -10 -10 -10 -10 -10 -10 -10 -10 -9 -9 -9 -9 -10 -10 -11 -11 -11 -12 -12 -12 -12 -12 -12 -13 -13 -13 -13 -13 -12 -12 -12 -13 -12 -13 -13 -13 -13 -13 -13 -13 -13 -13
-9 -10 -10 -10 -9 -10 -10 -10 -10 -10 -10 -10 -10 -10 -10 -10 -10 -11 -11 -12 -12 -12 -12 -13 -13 -13 -12 -13 -13 -12 -12 -12 -12 -13 -13 -13 -13 -13 -13 -13 -13 -13 -13 -13
-9 -10 -10 -10 -10 -10 -10 -11 -10 -10 -10 -10 -11 -10 -10 -10 -11 -11 -12 -12 -12 -12 -12 -12 -12 -13 -13 -12 -12 -12 -12 -13 -13 -13 -13 -13 -13 -13 -13 -13 -13 -13 -13 -13
-10 -10 -10 -10 -10 -11 -11 -10 -10 -10 -11 -11 -11 -10 -11 -11 -11 -12 -12 -12 -12 -12 -12 -13 -13 -13 -12 -12 -12 -12 -12 -12 -13 -13 -13 -13 -13 -13 -14 -14 -14 -14 -14 -14
-10 -11 -10 -11 -11 -11 -11 -10 -10 -10 -10 -10 -10 -11 -11 -11 -11 -11 -11 -11 -12 -12 -13 -13 -13 -12 -12 -12 -12 -12 -13 -13 -14 -14 -14 -14 -14 -14 -14 -14 -14 -15 -15 -15
-11 -11 -11 -11 -11 -11 -10 -10 -10 -10 -10 -10 -10 -11 -11 -11 -11 -12 -11 -12 -12 -13 -13 -13 -12 -12 -12 -12 -12 -12 -13 -13 -13 -13 -14 -14 -14 -15 -15 -15 -15 -15 -15 -15
-11 -12 -12 -11 -11 -11 -11 -10 -10 -10 -10 -10 -10 -10 -11 -11 -11 -11 -12 -13 -13 -13 -13 -13 -13 -12 -12 -12 -12 -13 -13 -13 -13 -14 -14 -14 -15 -15 -15 -15 -15 -15 -15 -15
-11 -12 -12 -12 -11 -12 -12 -12 -11 -10 -10 -10 -10 -10 -11 -11 -12 -12 -12 -13 -14 -14 -14 -13 -13 -13 -13 -12 -13 -13 -13 -13 -14 -14 -14 -15 -15 -15 -15 -15 -16 -16 -16 -16
-11 -12 -12 -12 -12 -12 -12 -11 -11 -11 -11 -11 -11 -11 -11 -11 -12 -12 -13 -13 -13 -14 -14 -14 -13 -13 -13 -13 -13 -13 -14 -14 -14 -14 -15 -15 -15 -15 -15 -15 -16 -16 -16 -16
-12 -12 -12 -12 -12 -12 -12 -12 -12 -12 -11 -11 -11 -11 -12 -12 -12 -12 -13 -14 -14 -14 -14 -14 -13 -14 -13 -14 -14 -14 -14 -14 -14 -15 -15 -16 -15 -16 -16 -16 -16 -16 -16 -16
-12 -12 -12 -12 -12 -12 -12 -12 -12 -12 -12 -12 -12 -12 -12 -12 -13 -13 -13 -14 -14 -14 -14 -14 -14 -14 -14 -14 -14 -14 -14 -15 -15 -15 -16 -16 -16 -16 -16 -16 -17 -16 -16 -16
-12 -11 -12 -12 -12 -12 -12 -12 -12 -12 -12 -12 -12 -12 -13 -13 -13 -13 -14 -14 -14 -14 -14 -14 -14 -14 -14 -15 -15 -15 -15 -15 -16 -16 -16 -16 -17 -17 -16 -17 -17 -17 -17 -17
-11 -11 -11 -12 -12 -13 -12 -12 -13 -13 -12 -12 -12 -13 -13 -13 -14 -14 -14 -14 -14 -14 -14 -14 -14 -14 -15 -15 -15 -16 -16 -16 -16 -17 -17 -17 -17 -17 -17 -17 -17 -17 -17 -18
-12 -12 -12 -12 -12 -12 -12 -12 -12 -13 -12 -13 -13 -13 -13 -14 -14 -14 -14 -14 -14 -14 -14 -14 -15 -15 -15 -14 -15 -16 -16 -16 -17 -18 -19 -19 -18 -18 -18 -18 -17 -17 -18 -19
-12 -12 -12 -12 -12 -12 -12 -12 -13 -13 -13 -13 -14 -14 -14 -14 -14 -14 -14 -14 -14 -14 -14 -15 -14 -14 -14 -15 -15 -16 -16 -17 -18 -18 -19 -19 -19 -19 -18 -18 -18 -18 -19 -20
-13 -12 -13 -13 -13 -13 -13 -13 -13 -13 -13 -14 -14 -14 -15 -15 -14 -14 -14 -14 -14 -14 -14 -14 -14 -14 -14 -15 -16 -16 -17 -18 -18 -19 -19 -19 -19 -18 -18 -18 -18 -19 -20 -20
-14 -14 -13 -13 -13 -13 -14 -13 -13 -14 -14 -14 -15 -15 -15 -15 -14 -14 -14 -14 -14 -14 -14 -14 -14 -14 -15 -16 -16 -17 -17 -18 -18 -19 -19 -19 -18 -18 -18 -18 -19 -19 -20 -21
-13 -13 -13 -13 -13 -12 -14 -14 -14 -14 -14 -14 -15 -15 -15 -15 -14 -14 -14 -14 -14 -14 -14 -14 -14 -15 -15 -16 -16 -17 -17 -18 -18 -19 -18 -18 -18 -18 -19 -19 -19 -19 -20 -20
-13 -14 -14 -14 -14 -13 -13 -14 -14 -14 -14 -15 -15 -15 -15 -14 -14 -14 -14 -14 -14 -14 -14 -14 -15 -15 -16 -16 -17 -17 -17 -18 -18 -18 -18 -18 -18 -18 -19 -19 -20 -20 -20 -20
-14 -14 -14 -14 -14 -14 -14 -14 -14 -14 -15 -15 -15 -14 -14 -14 -14 -13 -14 -14 -14 -14 -14 -14 -15 -16 -16 -16 -17 -17 -17 -18 -18 -18 -18 -18 -18 -18 -19 -19 -20 -19 -19 -19
-14 -14 -14 -14 -15 -15 -15 -15 -15 -15 -15 -15 -14 -14 -14 -14 -14 -14 -14 -14 -14 -14 -14 -15 -15 -16 -16 -17 -17 -17 -18 -17 -18 -17 -17 -18 -18 -18 -18 -18 -18 -18 -18 -18
-14 -15 -15 -14 -15 -14 -14 -15 -15 -14 -14 -14 -14 -14 -14 -14 -14 -14 -14 -14 -14 -14 -14 -15 -16 -16 -16 -17 -17 -17 -18 -18 -18 -17 -17 -18 -18 -18 -18 -18 -18 -18 -18 -18
Height
5914 5916 5915 5916 5918 5918 5917 5917 5916 5915 5913 5912 5911 5908 5907 5907 5906 5906 5905 5904 5901 5896 5893 5889 5886 5883 5879 5874 5870 5864 5860 5855 5851 5848 5844 5842 5838 5833 5825 5818 5812 5806 5800 5794
5913 5914 5915 5916 5917 5916 5916 5915 5913 5912 5910 5909 5907 5905 5904 5903 5903 5902 5901 5900 5897 5894 5890 5887 5884 5879 5876 5874 5869 5863 5858 5854 5849 5845 5842 5837 5830 5824 5817 5810 5803 5796 5790 5783
5913 5915 5915 5915 5915 5915 5914 5913 5911 5909 5908 5905 5903 5903 5902 5901 5900 5899 5897 5895 5893 5891 5889 5886 5881 5877 5873 5869 5863 5858 5854 5849 5844 5839 5832 5826 5819 5813 5807 5800 5793 5786 5780 5774
5913 5913 5913 5913 5913 5912 5911 5910 5908 5906 5905 5901 5899 5900 5899 5898 5897 5895 5894 5893 5890 5888 5886 5883 5878 5873 5867 5861 5856 5852 5846 5840 5833 5827 5823 5817 5810 5804 5797 5790 5785 5779 5772 5765
5912 5910 5910 5910 5910 5910 5909 5908 5905 5904 5901 5899 5898 5897 5897 5896 5895 5895 5893 5890 5886 5884 5881 5877 5872 5867 5861 5854 5850 5845 5839 5833 5826 5821 5814 5808 5801 5794 5788 5782 5776 5769 5762 5754
5908 5908 5909 5908 5908 5908 5908 5906 5902 5901 5898 5897 5896 5895 5894 5893 5892 5890 5888 5884 5881 5879 5876 5871 5866 5861 5853 5847 5842 5837 5831 5825 5819 5812 5805 5798 5792 5785 5779 5772 5765 5759 5751 5743
5906 5905 5906 5905 5906 5905 5905 5904 5902 5899 5897 5895 5894 5892 5891 5889 5888 5886 5883 5880 5876 5874 5869 5864 5859 5851 5845 5839 5835 5829 5823 5817 5811 5803 5796 5789 5783 5776 5768 5761 5754 5747 5740 5732
5904 5904 5904 5903 5903 5903 5902 5901 5899 5896 5894 5893 5891 5890 5888 5885 5884 5882 5878 5875 5872 5868 5861 5855 5849 5843 5838 5834 5827 5821 5816 5808 5800 5794 5788 5781 5773 5765 5758 5749 5741 5734 5727 5719
5901 5902 5902 5901 5901 5902 5899 5897 5896 5893 5892 5890 5888 5886 5885 5883 5880 5877 5873 5870 5866 5859 5854 5848 5842 5837 5832 5826 5820 5814 5807 5800 5794 5787 5779 5772 5764 5755 5747 5739 5732 5723 5715 5707
5899 5899 5900 5899 5898 5898 5897 5895 5892 5890 5888 5886 5885 5882 5881 5878 5875 5871 5867 5864 5858 5854 5849 5844 5838 5832 5827 5821 5813 5806 5800 5793 5786 5779 5770 5762 5754 5746 5738 5729 5720 5713 5705 5697
5897 5897 5899 5898 5897 5895 5893 5890 5888 5887 5885 5882 5880 5879 5874 5872 5870 5865 5862 5858 5854 5850 5845 5839 5833 5827 5820 5813 5806 5800 5793 5786 5779 5771 5763 5755 5747 5738 5729 5720 5711 5702 5694 5686
5895 5895 5895 5895 5894 5892 5890 5888 5885 5884 5883 5879 5876 5876 5872 5867 5862 5859 5856 5853 5848 5844 5839 5833 5827 5820 5813 5807 5801 5794 5787 5780 5772 5764 5755 5746 5737 5729 5719 5710 5700 5692 5684 5676
5893 5892 5892 5892 5892 5889 5887 5884 5881 5879 5876 5875 5872 5870 5866 5864 5860 5855 5851 5848 5843 5838 5832 5827 5821 5814 5807 5801 5795 5788 5780 5772 5763 5754 5745 5737 5728 5719 5710 5700 5691 5682 5675 5666
5888 5889 5888 5887 5886 5885 5884 5881 5878 5875 5873 5871 5870 5865 5863 5858 5854 5850 5846 5842 5837 5832 5827 5822 5816 5808 5802 5795 5788 5780 5772 5764 5754 5746 5737 5727 5717 5708 5699 5690 5681 5673 5665 5656
5883 5883 5882 5880 5879 5878 5877 5875 5872 5870 5868 5866 5864 5860 5856 5852 5849 5845 5841 5837 5832 5826 5821 5815 5809 5802 5795 5788 5780 5772 5763 5754 5745 5736 5726 5716 5707 5698 5689 5679 5670 5662 5654 5646
5877 5875 5875 5874 5873 5871 5869 5868 5867 5865 5863 5860 5856 5852 5849 5846 5843 5839 5834 5829 5826 5820 5815 5809 5803 5796 5789 5781 5773 5763 5754 5745 5735 5725 5715 5706 5696 5687 5677 5668 5659 5651 5643 5636
5872 5870 5870 5869 5866 5864 5863 5862 5860 5858 5857 5854 5851 5848 5844 5840 5836 5832 5827 5823 5818 5814 5809 5803 5796 5790 5784 5775 5765 5754 5745 5734 5724 5714 5703 5693 5684 5675 5666 5657 5648 5640 5633 5627
5865 5864 5863 5861 5860 5858 5859 5857 5854 5853 5852 5849 5846 5843 5839 5835 5831 5826 5821 5817 5813 5808 5803 5797 5792 5785 5775 5765 5755 5746 5736 5725 5713 5701 5690 5681 5672 5663 5654 5646 5637 5629 5623 5618
5857 5857 5855 5853 5853 5852 5853 5851 5849 5846 5846 5842 5840 5837 5834 5830 5826 5820 5816 5812 5808 5803 5797 5793 5786 5777 5766 5757 5748 5738 5727 5715 5703 5692 5682 5671 5662 5654 5645 5636 5627 5619 5612 5609
5849 5849 5848 5845 5843 5842 5844 5844 5843 5839 5840 5836 5834 5831 5827 5822 5820 5816 5811 5807 5802 5798 5793 5786 5778 5768 5758 5750 5741 5730 5718 5707 5696 5685 5675 5665 5657 5647 5636 5627 5617 5608 5603 5601
5839 5838 5837 5836 5835 5835 5837 5836 5835 5834 5834 5830 5827 5823 5820 5817 5814 5810 5806 5802 5798 5794 5787 5778 5769 5760 5752 5744 5735 5723 5712 5701 5691 5681 5671 5662 5652 5640 5629 5619 5609 5601 5596 5594
5832 5830 5830 5830 5828 5828 5829 5828 5829 5827 5824 5823 5821 5818 5815 5811 5809 5805 5801 5797 5792 5786 5778 5770 5762 5754 5747 5739 5728 5717 5707 5698 5687 5678 5669 5659 5648 5637 5626 5614 5604 5598 5594 5595
5823 5822 5822 5822 5822 5821 5820 5820 5819 5819 5818 5816 5813 5811 5809 5807 5804 5800 5796 5791 5785 5778 5772 5764 5756 5749 5741 5732 5721 5712 5703 5694 5684 5676 5667 5657 5646 5636 5625 5615 5605 5600 5599 5600
5815 5814 5815 5815 5815 5813 5813 5813 5813 5812 5811 5809 5807 5806 5804 5801 5798 5794 5789 5784 5780 5772 5765 5758 5750 5743 5735 5725 5716 5708 5699 5691 5682 5675 5666 5657 5648 5638 5630 5621 5613 5610 5608 5608
5811 5809 5807 5805 5806 5806 5806 5805 5805 5805 5804 5803 5801 5800 5797 5794 5791 5788 5782 5778 5773 5765 5759 5751 5744 5737 5729 5719 5712 5704 5696 5689 5682 5675 5667 5658 5651 5643 5636 5631 5626 5621 5618 5617
5802 5799 5799 5800 5799 5799 5799 5800 5799 5799 5798 5797 5795 5793 5791 5788 5784 5780 5775 5770 5765 5759 5752 5745 5738 5731 5722 5714 5707 5700 5693 5687 5681 5675 5668 5661 5655 5649 5643 5639 5634 5631 5628 5626
Wind_Speed
14 21 22 18 19 13 12 14 14 14 15 19 22 26 28 29 31 28 29 19 17 21 25 28 32 34 35 39 41 38 35 35 33 33 33 33 37 35 37 40 40 40 41 43
16 18 17 17 15 15 15 16 16 17 18 21 25 27 29 30 28 25 22 16 17 21 24 27 34 37 36 38 38 35 33 33 33 32 31 34 35 37 39 41 42 42 44 46
17 16 16 15 17 16 22 23 17 19 20 22 23 21 22 22 22 19 17 17 18 22 24 32 38 36 35 39 36 34 34 32 32 33 37 40 41 42 44 45 45 46 47 48
13 15 17 18 18 21 16 16 20 19 19 23 24 23 21 19 19 18 19 18 21 24 29 34 36 35 39 41 38 38 36 35 35 37 41 43 44 45 47 47 46 46 47 47
14 16 18 19 20 12 15 18 20 20 17 18 19 21 19 19 20 20 19 22 27 29 31 35 34 37 43 40 39 42 39 38 38 39 42 44 46 48 48 49 48 47 48 49
14 17 16 15 15 11 11 15 14 20 18 17 18 21 21 23 23 22 22 29 31 32 36 37 39 39 40 39 42 42 40 38 43 44 45 47 49 50 50 50 50 49 49 50
15 17 16 17 10 11 11 12 18 14 14 15 15 17 22 24 22 24 29 34 35 36 37 37 36 38 40 42 43 43 42 41 42 44 46 47 48 50 51 51 50 50 49 50
15 16 17 17 13 16 16 16 19 15 12 13 19 24 21 22 24 27 30 32 33 33 34 36 38 39 40 42 41 41 42 44 46 48 49 50 51 51 50 50 49 47 48 49
13 15 15 17 17 15 20 20 15 16 17 17 20 20 19 21 24 27 29 30 29 32 34 36 38 40 40 41 42 42 45 45 45 45 46 48 50 52 53 54 52 49 50 49
10 12 11 14 16 17 15 14 16 16 19 20 19 21 22 25 27 29 29 28 28 30 33 36 36 37 38 40 43 43 42 43 44 45 48 50 51 52 52 53 49 48 51 51
8 11 12 14 14 17 19 21 21 20 21 24 26 26 30 30 30 30 29 25 24 28 33 34 36 39 40 40 39 40 42 44 48 50 51 52 53 53 53 53 51 51 51 51
11 13 15 17 18 20 23 26 27 25 23 25 27 29 29 33 37 38 33 25 27 30 34 36 40 39 39 38 40 42 46 50 53 54 54 54 54 54 54 55 52 53 52 52
13 17 20 22 21 23 26 28 28 27 28 29 32 34 34 35 36 33 31 29 33 34 38 40 38 38 37 39 39 45 51 53 56 56 56 56 56 55 53 54 54 54 52 52
23 23 26 28 27 27 29 29 29 27 29 31 32 36 35 35 28 26 29 32 36 38 37 36 38 39 40 44 47 53 56 58 59 58 57 57 56 55 52 52 53 53 51 54
32 32 32 32 32 31 30 30 29 28 29 33 37 38 33 24 24 28 31 34 33 29 31 35 40 42 42 49 53 56 57 61 60 58 59 59 55 54 52 52 52 51 53 52
37 38 37 37 36 35 36 32 32 33 36 37 38 33 25 26 31 33 37 37 35 32 36 36 39 42 45 49 53 54 57 60 60 59 59 59 57 55 53 52 52 51 53 45
39 38 37 36 37 38 35 34 36 37 36 36 30 24 27 30 31 34 35 37 37 37 34 41 43 46 48 50 53 55 55 59 64 64 60 56 54 53 53 52 51 52 48 37
35 35 36 36 36 36 34 33 34 34 33 25 25 28 28 26 27 31 30 31 35 36 36 41 44 46 49 53 54 55 62 65 63 61 57 54 51 49 50 51 51 49 42 36
30 32 35 37 36 36 30 31 31 31 27 28 20 21 23 31 29 28 29 31 32 36 39 42 44 47 52 54 56 61 65 61 59 56 50 48 49 49 49 50 49 46 41 30
30 31 34 36 38 37 33 32 28 30 22 21 21 28 26 26 26 29 30 31 35 37 41 43 46 51 54 55 58 63 60 59 53 47 48 49 48 49 49 49 47 40 31 21
32 35 37 38 38 38 34 33 27 26 25 23 26 26 27 32 30 29 31 32 35 39 41 44 49 52 51 54 60 55 53 48 46 46 47 48 49 49 47 42 41 31 19 12
36 37 38 38 38 37 33 33 29 26 25 25 25 27 30 26 28 29 30 33 36 39 43 47 49 50 52 56 56 51 47 46 45 44 46 46 49 44 40 42 35 21 10 6
38 37 38 37 36 35 33 31 29 26 27 27 26 26 23 24 26 27 30 33 36 40 43 46 47 49 51 55 50 47 43 45 43 42 42 49 42 38 38 35 25 15 13 14
39 39 39 38 36 35 34 31 29 28 26 24 21 21 22 24 24 28 32 35 36 39 43 46 49 50 52 53 47 44 42 43 40 38 40 43 35 35 31 30 24 20 18 19
34 36 36 35 32 31 30 29 26 22 20 19 20 21 23 26 28 31 34 36 37 41 45 47 47 50 53 49 44 40 41 39 35 35 41 35 32 30 26 23 24 23 20 20
25 30 31 29 27 26 25 22 22 18 18 19 22 25 26 28 32 34 37 39 39 42 45 47 47 49 53 48 41 37 36 35 31 32 38 29 28 25 22 19 19 19 19 20
Wind_Direction
210 230 233 244 229 233 255 256 259 272 287 299 302 300 302 308 315 315 312 315 325 342 338 335 328 327 331 333 329 324 320 317 313 309 301 295 301 306 310 312 310 309 307 305
219 228 237 248 246 234 259 261 272 284 286 288 289 294 299 304 306 304 303 303 315 324 328 318 322 324 326 324 321 319 314 308 305 299 294 303 310 313 310 312 313 312 310 310
234 250 256 259 263 260 270 273 280 286 287 291 292 298 303 306 309 313 305 306 309 311 313 310 314 316 316 318 321 322 318 308 305 301 311 313 315 313 313 313 315 314 312 310
252 255 261 268 263 276 277 287 290 297 297 292 299 305 311 316 318 308 297 302 300 298 298 305 308 312 313 317 320 324 319 313 313 315 312 312 313 314 313 313 310 310 307 305
248 256 265 270 273 268 293 303 300 306 305 301 301 305 310 309 309 305 302 301 302 302 302 308 308 312 311 312 317 319 318 317 315 311 315 315 316 316 315 312 309 308 309 307
248 260 265 270 280 294 299 323 310 306 310 300 303 307 307 309 308 302 297 304 308 308 307 307 310 311 311 311 314 319 322 320 320 321 320 321 320 318 315 313 312 311 311 308
254 266 278 286 304 294 307 311 316 317 299 295 300 304 311 310 306 303 302 305 304 304 308 308 312 316 316 315 321 325 328 329 327 326 325 323 321 319 318 316 314 313 311 309
270 273 290 298 299 302 305 302 311 306 289 290 298 305 311 305 303 299 299 299 307 311 315 320 320 318 318 325 330 331 329 331 332 330 328 326 324 321 318 315 313 311 310 309
281 281 286 287 291 292 303 304 303 297 299 301 304 308 315 312 310 305 307 312 321 320 322 323 321 324 331 332 330 330 332 334 333 331 330 330 329 326 322 318 315 312 311 312
278 271 281 287 297 301 298 308 309 312 315 316 316 315 316 315 318 317 318 323 322 325 327 327 328 332 334 331 330 332 335 335 335 335 336 336 334 331 325 319 315 314 313 314
292 280 280 285 300 317 326 323 316 315 316 314 318 324 323 323 321 320 326 324 324 327 332 330 331 332 335 335 335 335 334 334 334 334 333 333 332 330 327 323 318 316 315 316
287 284 290 298 303 312 316 313 306 306 312 311 312 318 320 324 326 327 324 327 328 325 327 326 327 332 332 329 331 334 331 331 330 330 330 330 329 330 328 325 321 317 317 317
280 284 294 300 294 296 301 309 308 308 308 311 314 320 319 322 321 322 324 323 320 325 318 322 324 325 321 326 330 335 334 329 327 327 326 324 323 325 326 324 319 318 318 318
283 287 291 292 291 293 297 301 302 298 304 304 309 312 315 318 316 320 321 317 313 311 320 318 319 319 322 323 321 324 324 324 323 323 323 322 321 321 322 321 319 319 319 320
282 285 288 291 296 298 298 296 299 292 304 305 310 312 313 309 310 317 316 317 324 319 319 315 319 318 320 321 321 318 319 318 320 321 321 320 320 321 321 319 319 320 320 322
282 285 288 290 294 297 298 295 293 294 301 309 313 315 316 317 316 314 309 315 316 314 316 322 319 322 325 321 321 320 316 318 321 322 319 319 319 320 319 319 321 321 324 324
275 278 281 286 291 292 291 291 293 298 306 310 313 313 315 317 314 311 310 306 309 316 316 322 322 325 323 319 319 319 323 323 321 319 317 315 315 318 317 320 321 326 325 322
271 275 279 281 280 281 287 291 294 297 304 307 308 307 311 314 310 307 308 309 313 318 317 319 323 321 319 322 325 324 324 322 321 322 321 317 315 316 319 323 326 325 322 319
268 272 275 278 280 282 286 286 291 297 302 303 304 306 310 302 305 307 310 314 319 319 320 322 321 321 324 326 327 327 325 326 324 328 327 324 321 324 326 327 327 322 318 314
273 270 271 276 279 282 286 290 297 297 308 301 296 304 311 305 305 313 316 317 318 320 322 322 323 326 327 327 328 328 328 327 329 331 331 332 331 330 331 329 325 322 319 310
276 277 279 282 283 286 292 297 299 301 300 299 301 301 295 300 304 312 312 315 317 321 322 324 327 327 326 328 330 331 331 334 332 333 337 336 335 335 334 333 334 334 328 315
279 279 281 282 286 291 293 296 301 299 295 296 296 296 302 304 305 307 311 316 320 323 325 326 326 325 328 331 332 333 330 331 333 337 339 339 339 339 340 341 342 344 4 61
277 279 281 284 288 292 295 295 298 297 294 297 299 299 302 306 305 308 312 318 322 324 322 324 323 324 331 333 333 334 334 332 334 339 341 340 344 349 351 354 4 28 70 92
275 277 280 283 284 286 287 292 292 292 295 293 293 301 302 299 303 313 317 318 321 320 323 323 323 329 331 333 333 334 333 333 335 344 340 345 353 359 5 20 42 67 78 94
278 282 282 282 284 287 288 288 293 297 294 294 302 301 307 314 314 312 315 320 322 322 323 322 325 330 331 333 332 333 334 335 340 344 341 352 3 10 20 33 54 70 79 89
274 272 278 284 284 284 284 290 293 290 294 301 302 308 315 312 314 318 318 318 321 321 321 323 326 328 330 331 330 330 337 334 345 344 346 357 11 18 27 38 52 61 76 86